Location: Fluertsh�userhof
(48.7537°N, 10.3850°E)
Time: 15:25:47
(UTC+00:00)

Cosmos 1626 - Pass Details

Date: 18 September 2020
Orbit: 490 x 495 km, 82.5° (Epoch: 24 October)

Event Time Altitude Azimuth Distance (km) Brightness Sun altitude
Rises 20:12:54 0° 346° (NNW) 2,590 6.5 -26.6°
Reaches altitude 10° 20:15:03 10° 342° (NNW) 1,701 5.5 -26.9°
Enters shadow 20:17:21 34° 326° (NW) 839 3.7 -27.2°
